Waarnemingen

Advertentie
Mijn weer
Gibraltar, Groot Brittannië (8495): temperatuur & dauwpunt: 21.01.2021 14:00:00 - 27.01.2021 14:00:00 (CET)Gibraltar, Groot Brittannië (8495): windsnelheid & windstoten: 21.01.2021 14:00:00 - 27.01.2021 14:00:00 (CET)Gibraltar, Groot Brittannië (8495): windrichting: 21.01.2021 14:00:00 - 27.01.2021 14:00:00 (CET)Gibraltar, Groot Brittannië (8495): luchtdruk: 21.01.2021 14:00:00 - 27.01.2021 14:00:00 (CET)Gibraltar, Groot Brittannië (8495): zicht: 21.01.2021 14:00:00 - 27.01.2021 14:00:00 (CET)Gibraltar, Groot Brittannië (8495): Zonneschijnduur: 21.01.2021 14:00:00 - 27.01.2021 14:00:00 (CET)
Datum & Tijd tt [°C] td [°C] ff [km/u] ff [kn] fx [km/u] fx [kn] dd ppp [hPa] vv [km] sd [min]
27.01.2021 14:00:00 19,1 14,7 13 7 - - ZW 1025,0 45 60
27.01.2021 13:00:00 18,5 14,6 18 10 - - W 1026,0 75 60
27.01.2021 12:00:00 17,9 14,4 18 10 - - W 1026,6 70 60
27.01.2021 11:00:00 17,1 14,5 16 9 - - WZW 1026,1 60 60
27.01.2021 10:00:00 16,5 14,6 15 8 - - WZW 1025,7 70 60
27.01.2021 09:00:00 16,2 14,5 22 12 - - W 1025,5 60 12
27.01.2021 08:00:00 16,4 14,3 16 9 - - WZW 1025,1 30 0
27.01.2021 07:00:00 16,0 14,3 18 10 - - W 1024,9 25 0
27.01.2021 06:00:00 15,9 14,2 24 13 - - W 1025,1 50 0
27.01.2021 05:00:00 16,1 14,4 26 14 - - W 1025,4 55 0
27.01.2021 04:00:00 16,7 14,3 24 13 - - WZW 1025,8 75 0
27.01.2021 03:00:00 16,6 14,8 22 12 - - WZW 1026,3 75 0
27.01.2021 02:00:00 16,4 14,8 16 9 - - WZW 1026,6 75 0
27.01.2021 01:00:00 16,2 14,8 13 7 - - WZW 1027,2 60 -
27.01.2021 00:00:00 16,3 14,7 22 12 - - W 1027,2 50 0
26.01.2021 23:00:00 16,3 14,6 18 10 - - WZW 1026,9 50 0
26.01.2021 22:00:00 16,3 14,7 16 9 - - WZW 1027,0 55 0
26.01.2021 21:00:00 16,4 14,8 28 15 - - WNW 1027,2 50 0
26.01.2021 20:00:00 16,5 14,5 15 8 - - WZW 1026,8 30 0
26.01.2021 19:00:00 17,1 14,6 15 8 - - ZW 1026,4 25 18
26.01.2021 18:00:00 17,1 14,2 18 10 - - ZZW 1026,0 25 12
26.01.2021 17:00:00 17,2 14,1 18 10 - - ZW 1025,8 25 0
26.01.2021 16:00:00 17,3 14,2 13 7 - - ZW 1025,7 26 0
26.01.2021 15:00:00 18,0 13,9 15 8 - - WZW 1025,7 30 0
26.01.2021 14:00:00 17,8 13,7 22 12 - - WZW 1026,0 30 0
26.01.2021 13:00:00 17,2 13,8 22 12 - - W 1026,6 35 0
26.01.2021 12:00:00 17,2 13,8 24 13 - - W 1027,1 30 6
26.01.2021 11:00:00 17,1 13,3 22 12 - - W 1026,8 30 48
26.01.2021 10:00:00 16,7 13,2 18 10 - - W 1025,9 30 54
26.01.2021 09:00:00 15,6 13,5 13 7 - - W 1025,8 25 6
26.01.2021 08:00:00 15,9 13,4 18 10 - - W 1025,3 25 0
26.01.2021 07:00:00 15,8 13,4 21 11 - - W 1024,8 25 0
26.01.2021 06:00:00 15,8 13,3 22 12 - - W 1024,6 25 0
26.01.2021 05:00:00 15,9 13,5 26 14 - - W 1024,5 21 0
26.01.2021 04:00:00 16,1 13,2 22 12 - - W 1024,5 23 0
26.01.2021 03:00:00 16,2 13,3 29 16 - - W 1024,0 22 0
26.01.2021 02:00:00 16,5 13,1 26 14 - - W 1023,8 25 0
26.01.2021 01:00:00 16,6 13,1 21 11 - - WZW 1024,0 27 -
26.01.2021 00:00:00 16,3 13,1 24 13 - - ZW 1023,6 27 0
25.01.2021 23:00:00 15,9 13,0 31 17 - - W 1023,1 29 0
25.01.2021 22:00:00 15,9 12,8 37 20 46 25 W 1022,0 35 0
25.01.2021 21:00:00 15,8 12,9 28 15 - - WZW 1022,3 35 0
25.01.2021 20:00:00 16,2 12,8 29 16 - - W 1021,8 40 0
25.01.2021 19:00:00 16,0 13,3 37 20 50 27 W 1020,8 35 6
25.01.2021 18:00:00 16,2 13,7 29 16 50 27 W 1020,4 12 0
25.01.2021 17:00:00 16,5 14,5 26 14 48 26 ZW 1019,8 6 0
25.01.2021 16:00:00 17,8 13,3 31 17 54 29 WZW 1019,5 60 0
25.01.2021 15:00:00 17,9 13,0 31 17 52 28 WZW 1019,6 12 0
25.01.2021 14:00:00 17,2 13,5 26 14 46 25 WZW 1020,2 20 0
25.01.2021 13:00:00 17,0 13,3 24 13 - - WZW 1021,2 7 0
25.01.2021 12:00:00 16,7 12,6 21 11 - - ZW 1021,4 30 0
25.01.2021 11:00:00 16,0 13,2 18 10 - - WZW 1021,0 12 6
25.01.2021 10:00:00 16,5 12,7 26 14 - - WZW 1020,5 15 6
25.01.2021 09:00:00 16,2 12,7 22 12 - - WZW 1020,2 25 0
25.01.2021 08:00:00 16,0 12,4 22 12 - - W 1019,6 20 0
25.01.2021 07:00:00 15,5 12,3 15 8 - - ZW 1019,4 18 0
25.01.2021 06:00:00 15,1 12,4 16 9 - - W 1019,6 15 0
25.01.2021 05:00:00 15,1 12,1 13 7 - - WZW 1019,7 40 0
25.01.2021 04:00:00 15,1 11,8 18 10 - - WZW 1019,9 35 0
25.01.2021 03:00:00 14,5 11,8 18 10 - - WZW 1020,0 30 0
25.01.2021 02:00:00 14,5 11,8 24 13 - - W 1020,1 26 0
25.01.2021 01:00:00 14,8 11,4 26 14 - - W 1020,3 29 -
25.01.2021 00:00:00 14,8 12,0 26 14 - - W 1020,4 27 0
24.01.2021 23:00:00 14,8 12,3 24 13 - - W 1020,0 25 0
24.01.2021 22:00:00 14,8 12,1 21 11 - - W 1020,0 20 0
24.01.2021 21:00:00 15,2 12,4 26 14 - - W 1019,7 20 0
24.01.2021 20:00:00 15,7 12,7 22 12 - - W 1019,4 35 0
24.01.2021 19:00:00 15,8 13,6 21 11 - - W 1018,9 20 0
24.01.2021 18:00:00 16,9 13,4 18 10 - - WZW 1018,8 10 0
24.01.2021 17:00:00 16,7 13,1 22 12 - - W 1018,5 20 0
24.01.2021 16:00:00 16,5 14,3 16 9 - - ZW 1018,4 20 0
24.01.2021 15:00:00 15,5 14,4 18 10 - - ZZW 1018,7 10 0
24.01.2021 14:00:00 15,4 14,4 18 10 - - ZW 1019,5 3,0 0
24.01.2021 13:00:00 15,6 14,1 24 13 - - ZW 1020,1 10 0
24.01.2021 12:00:00 15,6 14,0 21 11 - - ZW 1020,4 12 0
24.01.2021 11:00:00 15,3 14,0 22 12 - - ZW 1020,0 3,0 0
24.01.2021 10:00:00 15,5 13,7 26 14 48 26 ZW 1019,2 7 0
24.01.2021 09:00:00 15,4 13,4 26 14 48 26 ZW 1018,8 7 0
24.01.2021 08:00:00 16,1 12,7 24 13 52 28 WZW 1018,6 29 0
24.01.2021 07:00:00 14,9 13,1 29 16 50 27 ZW 1018,2 18 0
24.01.2021 06:00:00 14,9 13,3 26 14 54 29 ZW 1018,4 10 0
24.01.2021 05:00:00 14,6 13,1 41 22 57 31 ZW 1018,6 7 0
24.01.2021 04:00:00 14,2 13,0 39 21 55 30 ZW 1018,8 6 0
24.01.2021 03:00:00 14,3 12,6 35 19 55 30 ZW 1019,5 5 0
24.01.2021 02:00:00 14,6 12,7 35 19 57 31 ZW 1019,7 1,2 0
24.01.2021 01:00:00 15,7 12,5 39 21 54 29 WZW 1020,1 20 -
24.01.2021 00:00:00 15,5 12,1 37 20 54 29 ZW 1020,3 20 0
23.01.2021 23:00:00 15,8 11,5 39 21 52 28 WZW 1020,6 21 0
23.01.2021 22:00:00 15,4 11,6 39 21 54 29 WZW 1021,1 5 0
23.01.2021 21:00:00 15,7 10,6 39 21 57 31 WZW 1020,9 24 0
23.01.2021 20:00:00 15,9 10,3 39 21 52 28 WZW 1020,9 24 0
23.01.2021 19:00:00 16,0 10,2 29 16 50 27 WZW 1020,7 25 0
23.01.2021 18:00:00 16,3 9,6 35 19 48 26 WZW 1020,8 28 6
23.01.2021 17:00:00 16,7 9,5 31 17 50 27 WZW 1020,8 15 12
23.01.2021 16:00:00 16,7 9,8 28 15 52 28 WZW 1021,1 15 36
23.01.2021 15:00:00 16,6 10,1 28 15 - - WZW 1021,8 20 24
23.01.2021 14:00:00 15,5 12,3 18 10 - - ZW 1022,4 15 6
23.01.2021 13:00:00 15,7 11,5 22 12 - - WZW 1023,5 7 12
23.01.2021 12:00:00 15,7 10,7 26 14 - - W 1023,8 28 0
23.01.2021 11:00:00 15,2 10,6 18 10 - - W 1023,6 30 54
23.01.2021 10:00:00 14,1 10,5 9 5 - - W 1022,8 30 54
23.01.2021 09:00:00 13,9 10,7 16 9 - - W 1023,0 25 0
23.01.2021 08:00:00 14,0 11,0 16 9 - - W 1023,0 25 0
23.01.2021 07:00:00 14,3 10,9 21 11 - - W 1022,4 27 0
23.01.2021 06:00:00 14,4 11,4 18 10 - - W 1022,5 21 0
23.01.2021 05:00:00 14,5 11,1 28 15 - - W 1022,9 21 0
23.01.2021 04:00:00 14,3 10,3 31 17 - - WZW 1022,8 30 0
23.01.2021 03:00:00 13,7 10,5 31 17 48 26 W 1022,8 30 0
23.01.2021 02:00:00 14,4 10,4 29 16 - - W 1023,3 29 0
23.01.2021 01:00:00 14,1 10,1 28 15 - - W 1024,1 40 -
23.01.2021 00:00:00 14,7 10,6 35 19 - - W 1024,0 22 0
22.01.2021 23:00:00 15,2 10,9 29 16 - - W 1023,7 14 0
22.01.2021 22:00:00 15,2 10,4 26 14 - - W 1023,4 15 0
22.01.2021 21:00:00 15,2 10,6 31 17 46 25 W 1022,8 15 0
22.01.2021 20:00:00 15,5 10,3 39 21 57 31 W 1022,3 15 0
22.01.2021 19:00:00 15,6 10,1 41 22 52 28 W 1021,2 16 0
22.01.2021 18:00:00 16,2 9,6 34 18 57 31 W 1020,7 25 48
22.01.2021 17:00:00 16,7 9,1 39 21 63 34 W 1020,0 30 60
22.01.2021 16:00:00 17,1 8,6 41 22 67 36 W 1019,6 35 60
22.01.2021 15:00:00 17,3 8,1 48 26 65 35 W 1019,5 21 60
22.01.2021 14:00:00 17,2 10,0 34 18 65 35 W 1019,9 35 60
22.01.2021 13:00:00 17,3 9,4 34 18 61 33 W 1020,5 20 36
22.01.2021 12:00:00 16,4 11,4 34 18 55 30 W 1020,8 15 12
22.01.2021 11:00:00 16,4 11,9 28 15 50 27 W 1020,8 20 12
22.01.2021 10:00:00 16,3 11,8 31 17 52 28 W 1019,9 15 0
22.01.2021 09:00:00 16,4 13,0 18 10 - - WZW 1019,1 10 0
22.01.2021 08:00:00 15,5 13,7 29 16 54 29 WZW 1018,3 10 0
22.01.2021 07:00:00 16,1 14,8 22 12 - - ZZW 1018,1 6 0
22.01.2021 06:00:00 16,2 14,6 28 15 63 34 ZW 1017,9 6 0
22.01.2021 05:00:00 15,7 14,5 42 23 63 34 WZW 1018,7 2,9 0
22.01.2021 04:00:00 16,2 14,0 35 19 50 27 WZW 1019,6 7 0
22.01.2021 03:00:00 15,8 13,6 31 17 61 33 ZW 1019,8 1,5 0
22.01.2021 02:00:00 16,4 13,8 37 20 57 31 ZW 1020,0 5 0
22.01.2021 01:00:00 16,4 13,5 35 19 52 28 ZW 1020,2 20 -
22.01.2021 00:00:00 16,4 13,5 34 18 48 26 WZW 1021,6 17 0
21.01.2021 23:00:00 16,0 13,2 26 14 - - WZW 1021,9 14 0
21.01.2021 22:00:00 16,1 12,6 22 12 - - ZW 1022,0 10 0
21.01.2021 21:00:00 15,9 12,7 18 10 - - ZW 1022,1 20 0
21.01.2021 20:00:00 16,0 12,3 22 12 - - ZW 1022,2 20 0
21.01.2021 19:00:00 16,3 12,1 28 15 54 29 ZW 1021,8 20 0
21.01.2021 18:00:00 16,1 12,9 26 14 48 26 WZW 1021,3 15 6
21.01.2021 17:00:00 16,6 12,1 29 16 52 28 WZW 1021,0 18 6
21.01.2021 16:00:00 16,5 11,9 26 14 - - WZW 1021,2 18 0
21.01.2021 15:00:00 16,3 12,6 26 14 50 27 ZW 1021,6 20 0
21.01.2021 14:00:00 16,1 13,0 22 12 46 25 ZW 1022,2 20 6

tt = temperatuur
td = dauwpunt
ff = windsnelheid
fx = windstoten
dd = windrichting
ppp = luchtdruk
vv = zicht
sd = Zonneschijnduur

Weerstations in de omgeving